AirNav   Air Wisconsin pilot careers
 
 387 users online  

KSAS Salton Sea Airport
Salton City, California, USA

GOING TO SALTON CITY?


FAA INFORMATION EFFECTIVE 26 APRIL 2018

Location

FAA Identifier: SAS
Lat/Long: 33-14-28.3000N / 115-57-09.3000W
33-14.471667N / 115-57.155000W
33.2411944 / -115.9525833
(estimated)
Elevation: -84 ft. / -26 m (estimated)
Variation: 13E (1985)
From city: 1 mile SW of SALTON CITY, CA
Time zone: UTC -7 (UTC -8 during Standard Time)
Zip code: 92275

Airport Operations

Airport use: Open to the public
Activation date: 01/1960
Control tower: no
ARTCC: LOS ANGELES CENTER
FSS: SAN DIEGO FLIGHT SERVICE STATION
NOTAMs facility: SAN (NOTAM-D service available)
Attendance: UNATNDD
Pattern altitude: 716 ft. MSL
Wind indicator: yes
Segmented circle: yes

Airport Communications

CTAF: 122.9
WX AWOS-3 at L08 (19 nm W): 126.575 (760-767-3308)

Nearby radio navigation aids

VOR radial/distance  VOR name  Freq  Var
TRMr143/25.4THERMAL VORTAC116.2013E
JLIr064/32.4JULIAN VORTAC114.0015E
IPLr309/37.0IMPERIAL VORTAC115.9014E

Airport Services

Parking: tiedowns
Airframe service: NONE
Powerplant service: NONE
Bottled oxygen: NONE
Bulk oxygen: NONE

Runway Information

Runway 7/25

Dimensions: 5000 x 75 ft. / 1524 x 23 m
Surface: gravel, in good condition
Weight bearing capacity: 
Single wheel: 28.0
Runway edge markings: RY 07 AND RY 25 WHITE THLD BARS ARE ONLY MARKINGS ON RY.
RUNWAY 7  RUNWAY 25
Latitude: 33-14.433833N33-14.508167N
Longitude: 115-57.644333W115-56.667000W
Traffic pattern: rightleft
Runway end identifier lights: nono

Airport Ownership and Management from official FAA records

Ownership: Privately-owned
Owner: BURRTEC WASTE INDUSTRIES
9890 CHERRY AVENUE
FONTANA, CA 92335
Phone (909) 429-4200
Manager: DEBBIE HANSEN
9890 CHERRY AVENUE
FONTANA, CA 92335
Phone (909) 429-4200

Airport Operational Statistics

Aircraft operations: avg 29/month *
100% transient general aviation
* for 12-month period ending 31 May 2017

Additional Remarks

LOOSE GRVL INVOF PARKING AREA.
OCCASIONAL ULTRALIGHT ACTIVITY ON WEEKENDS.

Instrument Procedures

There are no published instrument procedures at KSAS.

Some nearby airports with instrument procedures:

L08 - Borrego Valley Airport (19 nm W)
KCLR - Cliff Hatfield Memorial Airport (23 nm E)
KTRM - Jacqueline Cochran Regional Airport (25 nm NW)
KBWC - Brawley Municipal Airport (26 nm SE)
KNJK - El Centro NAF Airport (29 nm SE)
 
Loc | Ops | Rwys | IFR | FBO | Links
Com | Nav | Svcs | Stats | Notes

AirNav Hotels Sweepstakes
 
Area around KSAS (Salton Sea Airport)
 
Road maps at: MapQuest Bing Google
 
Aerial photo
WARNING: Photo may not be current or correct
Aerial photo of KSAS (Salton Sea Airport)
Photo by Mark Holtzman
Photo taken 12-May-2017
looking west.

Do you have a better or more recent aerial photo of Salton Sea Airport that you would like to share? If so, please send us your photo.

 
Sectional chart

 
Airport distance calculator
Flying to Salton Sea Airport? Find the distance to fly.

From to KSAS

Sunrise and sunset
Times for 24-May-2018
 Local
(UTC-7)
 Zulu
(UTC)
Morning civil twilight05:1212:12
Sunrise05:3912:39
Sunset19:4202:42
Evening civil twilight20:1003:10

Current date and time
Zulu (UTC)  24-May-2018 09:55:31
Local (UTC-7)  24-May-2018 02:55:31
 
METAR
KTRM 
26nm NW 
240852Z AUTO 34013KT 10SM CLR 24/11 A2984 RMK AO2 SLP105 T02390111 51002
KNJK 
29nm SE 
240856Z AUTO 26013KT 10SM CLR 23/08 A2985 RMK AO2 SLP124 T02330078 57001 $
KIPL 
31nm SE 
240853Z AUTO 11005KT 10SM CLR 21/12 A2984 RMK AO2 SLP106 T02110117 53003
KPSP 
44nm NW 
240853Z AUTO 32008KT 10SM CLR 23/12 A2989 RMK AO2 SLP119 T02280117 50001
KCZZ 
45nm SW 
240852Z AUTO 00000KT 12/11 A3000 RMK AO1 SLP133 T01170111 58009
TAF
KTRM 
26nm NW 
240520Z 2406/2506 33010KT P6SM SKC FM241200 VRB06KT P6SM SKC FM241900 14010KT P6SM SKC FM250100 VRB06KT P6SM SKC FM250300 33012G20KT P6SM SKC
KNJK 
29nm SE 
2407/2507 VRB06KT 9999 SKC QNH2974INS FM250200 24012G18KT 9999 SKC QNH2977INS AUTOMATED SENSOR METWATCH 2407 TIL 2414 T18/2415Z T34/2500Z FS30108
KIPL 
31nm SE 
240539Z 2406/2506 20006KT P6SM SKC FM241800 15008KT P6SM SKC FM250100 22012KT P6SM SKC
NOTAMs
Click for the latest NOTAMs
NOTAMs are issued by the DoD/FAA and will open in a separate window not controlled by AirNav.

 

 
 

Would you like to see your business listed on this page?

 If your business provides an interesting product or service to pilots, flight crews, aircraft, or users of the Salton Sea Airport, you should consider listing it here.  To start the listing process, click on the button below
 
Add a business
 

Other Pages about Salton Sea Airport

Update a link
 
Copyright © AirNav, LLC. All rights reserved. Privacy Policy  Contact